FICHTELBE Weather Reports


Display with metric or nautical units.
time (UTC)temp
F
wind
direction
speed
MPH
gust
MPH
rain 1hr
in
rain 24hr
in
rain mn
in
humidity
%
barometer
mb
20260509231639 39 140 14.0 0.0 0.00 0.00 0.00 93
20260509221938 39 130 16.0 0.0 0.00 0.00 0.00 93
20260509211639 39 130 18.0 0.0 0.00 0.00 0.00 93
20260509201638 41 120 20.0 0.0 0.00 0.00 0.00 93
20260509191739 43 120 18.0 0.0 0.00 0.00 0.00 86
20260509181638 45 110 15.0 0.0 0.00 0.00 0.00 87
20260509171638 48 110 12.0 0.0 0.00 0.00 0.00 81
20260509161938 48 110 9.0 0.0 0.00 0.00 0.00 81
20260509151639 50 110 9.0 0.0 0.00 0.00 0.00 76
20260509141639 50 90 5.0 0.0 0.00 0.00 0.00 81
20260509131738 50 110 7.0 0.0 0.00 0.00 0.00 76
20260509121639 48 130 8.0 0.0 0.00 0.00 0.00 81
20260509111638 48 120 7.0 0.0 0.00 0.00 0.00 81
20260509101839 45 120 6.0 0.0 0.00 0.00 0.00 87
20260509091639 45 100 8.0 0.0 0.00 0.00 0.00 87
20260509081639 43 110 8.0 0.0 0.00 0.00 0.00 93
20260509071738 41 110 7.0 0.0 0.00 0.00 0.00 93
20260509061639 39 130 6.0 0.0 0.00 0.00 0.00 93
20260509051638 37 120 7.0 0.0 0.00 0.00 0.00 99
20260509041839 37 130 8.0 0.0 0.00 0.00 0.00 93
20260509031639 37 140 9.0 0.0 0.00 0.00 0.00 93
20260509021639 37 150 8.0 0.0 0.00 0.00 0.00 93
20260509011739 37 130 8.0 0.0 0.00 0.00 0.00 93
20260509001639 37 130 8.0 0.0 0.00 0.00 0.00 99